Regional Weather Roundup
Issued by NWS

Home | Current Version | Previous Version | Text Only | Print | Product List | Glossary On
Versions: 1 2 3 4 5 6 7 8 9 10 11 12 13 14 15 16 17 18 19 20 21 22 23 24 25 26 27 28 29 30 31 32 33 34 35 36 37 38 39 40 41 42 43 44 45 46 47 48 49 50
000
ASUS43 KLSX 301259
RWRMO

WEATHER SUMMARY FOR MISSOURI
NATIONAL WEATHER SERVICE SPRINGFIELD MO
800 AM CDT WED JUL 30 2014

NOTE: "FAIR" INDICATES FEW OR NO CLOUDS BELOW 12,000 FEET WITH NO
       SIGNIFICANT WEATHER AND/OR OBSTRUCTIONS TO VISIBILITY.
       CURRENT SKY AND/OR WEATHER CONDITIONS ARE NOT AVAILABLE FOR
       CHILLICOTHE AND FARMINGTON.

MOZ001>031-035>038-043-044-053-054-301400-
...NORTHERN AND WESTERN MISSOURI...

CITY           SKY/WX    TMP DP  RH WIND       PRES   REMARKS
KANSAS CTY INT CLOUDY    63  60  90 N6        30.12R
KANSAS C DTWN  CLOUDY    68  60  75 N5        30.11R
LEE`S SUMMIT   CLOUDY    65  59  81 N5        30.12R
ST JOSEPH      CLOUDY    63  60  90 N3        30.12R
KIRKSVILLE     SUNNY     66  59  78 NW3       30.12R

$$
MOZ066>068-077>081-088>096-101>105-301400-
...SOUTHWEST MISSOURI...

CITY           SKY/WX    TMP DP  RH WIND       PRES   REMARKS
SPRINGFIELD    PTSUNNY   71  59  65 CALM      30.09S
JOPLIN         CLOUDY    67  65  93 SE6       30.09F

$$
MOZ032>034-039>042-045>050-055>058-069>072-301400-
...CENTRAL MISSOURI...

CITY           SKY/WX    TMP DP  RH WIND       PRES   REMARKS
COLUMBIA       CLOUDY    68  59  73 CALM      30.10S
JEFFERSON CITY CLOUDY    62  59  90 W3        30.10R
ROLLA          CLOUDY    63  58  83 CALM      30.09R
SEDALIA        CLOUDY    65  59  81 CALM      30.10S
OSAGE BEACH    CLOUDY    61  57  88 CALM      30.10R

$$
MOZ051-052-059>065-301400-
...EAST CENTRAL MISSOURI...

CITY           SKY/WX    TMP DP  RH WIND       PRES   REMARKS
ST LOUIS INTL  PTSUNNY   72  59  63 CALM      30.10R
SPIRIT OF STL  PTSUNNY   65  59  81 CALM      30.09R
ST CHARLES     MOSUNNY   67  63  87 CALM      30.09R

$$
MOZ072>076-082>087-097>100-106>115-301400-
...SOUTH CENTRAL AND SOUTHEAST MISSOURI...

CITY           SKY/WX    TMP DP  RH WIND       PRES   REMARKS
CAPE GIRARDEAU PTSUNNY   64  60  87 CALM      30.11R
FARMINGTON     CLOUDY    64  57  77 CALM      30.13S
POPLAR BLUFF   PTSUNNY   65  59  81 CALM      30.10R
WEST PLAINS    MOSUNNY   66  59  78 SW6       30.12R

$$


USA.gov is the U.S. government's official web portal to all federal, state and local government web resources and services.